This is the latest recevied weather packets stored in our database for station/object KF4CQ. If no packets are shown the sender has not sent any weather packets the latest 10 day(s).
| Time | Temp. | Humidity | Pressure | Rain* | Wind** | Luminosity | Snow |
|---|---|---|---|---|---|---|---|
| 1778181867 | 33.89° C | 40% | 1015 hPa | 0 mm | - | 181 W/m² | - |
| 1778181565 | 33.89° C | 40% | 1015.1 hPa | 0 mm | - | 468 W/m² | - |
| 1778181261 | 34.44° C | 41% | 1015.2 hPa | 0 mm | - | 538 W/m² | - |
| 1778180957 | 34.44° C | 41% | 1015 hPa | 0 mm | - | 709 W/m² | - |
| 1778180655 | 34.44° C | 41% | 1015 hPa | 0 mm | - | 555 W/m² | - |
| 1778180354 | 33.89° C | 42% | 1015.1 hPa | 0 mm | - | 296 W/m² | - |
| 1778180051 | 33.89° C | 42% | 1015.1 hPa | 0 mm | - | 133 W/m² | - |
| 1778179748 | 34.44° C | 44% | 1015.4 hPa | 0 mm | - | 135 W/m² | - |
| 1778179445 | 34.44° C | 43% | 1015.3 hPa | 0 mm | - | 613 W/m² | - |
| 1778179143 | 34.44° C | 44% | 1015.4 hPa | 0 mm | - | 767 W/m² | - |
| 1778178839 | 35° C | 41% | 1015.4 hPa | 0 mm | - | 700 W/m² | - |
| 1778178537 | 34.44° C | 44% | 1015.4 hPa | 0 mm | - | 565 W/m² | - |
| 1778178232 | 35° C | 42% | 1015.5 hPa | 0 mm | - | 245 W/m² | - |
| 1778177929 | 34.44° C | 40% | 1015.4 hPa | 0 mm | - | 697 W/m² | - |
| 1778177625 | 34.44° C | 41% | 1015.6 hPa | 0 mm | - | 509 W/m² | - |
| 1778177322 | 34.44° C | 43% | 1015.8 hPa | 0 mm | - | 798 W/m² | - |
| 1778177019 | 35° C | 42% | 1015.9 hPa | 0 mm | - | 798 W/m² | - |
| 1778176714 | 35° C | 45% | 1016.1 hPa | 0 mm | - | 796 W/m² | - |
| 1778176412 | 33.89° C | 46% | 1016.3 hPa | 0 mm | - | 812 W/m² | - |
| 1778176109 | 34.44° C | 46% | 1016.2 hPa | 0 mm | - | 806 W/m² | - |
| 1778175806 | 33.89° C | 46% | 1016.4 hPa | 0 mm | - | 804 W/m² | - |
| 1778175504 | 33.33° C | 45% | 1016.2 hPa | 0 mm | - | 807 W/m² | - |
| 1778175201 | 33.33° C | 46% | 1016.2 hPa | 0 mm | - | 805 W/m² | - |
| 1778174897 | 33.89° C | 46% | 1016.4 hPa | 0 mm | - | 805 W/m² | - |
| 1778174594 | 33.33° C | 48% | 1016.1 hPa | 0 mm | - | 804 W/m² | - |
* Rain latest hour (hover to see other rain measurements)
** Current wind speed in m/s (hover to see current wind gust speed)